Location: Ar Ranvel
(48.3000°N, 4.8833°W)
Time: 06:50:00
(UTC+00:00)

USA 238 - Visible Passes

Search period start: 26 October 2021 00:00
Search period end: 05 November 2021 00:00
Orbit: 980 x 1232 km, 63.4° (Epoch: 24 October)

Date Brightness Start Highest point End Pass type
(mag) Time Alt. Az. Time Alt. Az. Time Alt. Az.
26 Oct 5.1 18:36:52 10° NW 18:42:36 26° NNE 18:46:30 17° NE visible
26 Oct 4.4 20:28:10 10° NW 20:33:56 48° N 20:33:56 48° N visible
26 Oct 5.8 22:19:16 10° NW 22:21:23 20° NW 22:21:23 20° NW visible
27 Oct 5.1 17:51:39 10° NW 17:57:08 24° N 18:02:51 10° ENE visible
27 Oct 4.4 19:43:21 10° NW 19:50:03 41° NNE 19:50:34 41° NE visible
27 Oct 5.2 21:34:18 10° NW 21:38:00 33° NW 21:38:00 33° NW visible
28 Oct 4.7 18:58:29 10° NW 19:04:47 33° NNE 19:07:15 27° ENE visible
28 Oct 4.4 20:49:27 10° NW 20:54:41 52° NW 20:54:41 52° NW visible
28 Oct 6.2 22:41:12 10° WNW 22:42:06 13° WNW 22:42:06 13° WNW visible
29 Oct 4.9 18:13:30 10° NW 18:19:26 28° NNE 18:23:57 16° ENE visible
29 Oct 3.9 20:04:38 10° NW 20:11:23 62° NNE 20:11:23 62° NNE visible
29 Oct 5.6 21:55:54 10° NW 21:58:50 24° WNW 21:58:50 24° WNW visible
30 Oct 5.0 17:28:23 10° NW 17:34:00 25° N 17:39:53 10° ENE visible
30 Oct 4.2 19:19:50 10° NW 19:26:44 48° NE 19:28:09 43° ENE visible
30 Oct 4.9 21:10:51 10° NW 21:15:35 41° WNW 21:15:35 41° WNW visible
31 Oct 4.5 18:35:00 10° NW 18:41:33 37° NNE 18:44:58 25° ENE visible
31 Oct 4.0 20:25:57 10° NW 20:32:25 72° WNW 20:32:25 72° WNW visible
31 Oct 6.1 22:18:10 10° WNW 22:19:52 15° WNW 22:19:52 15° WNW visible
01 Nov 4.7 17:50:05 10° NW 17:56:15 31° NNE 18:01:51 13° E visible
01 Nov 3.7 19:41:07 10° NW 19:48:21 75° NE 19:49:18 67° E visible
01 Nov 5.5 21:32:38 10° NW 21:36:46 27° W 21:36:46 27° W visible
02 Nov 4.0 18:56:18 10° NW 19:03:22 56° NE 19:06:17 36° E visible
02 Nov 4.7 20:47:27 10° NW 20:53:44 45° WSW 20:53:44 45° WSW visible
03 Nov 4.3 18:11:30 10° NW 18:18:15 43° NE 18:23:21 19° E visible
03 Nov 4.1 20:02:28 10° NW 20:09:40 66° SW 20:10:49 59° SSW visible
03 Nov 6.1 21:55:28 10° WNW 21:58:18 15° W 21:58:18 15° W visible
04 Nov 4.6 17:26:37 10° NW 17:33:02 34° NNE 17:39:44 10° E visible
04 Nov 3.8 19:17:36 10° NW 19:24:52 89° NE 19:28:02 39° SE visible
04 Nov 5.5 21:09:28 10° WNW 21:15:08 24° WSW 21:15:31 24° WSW visible
